Regional Weather Roundup
Issued by NWS

Home | Current Version | Previous Version | Graphics & Text | Print | Product List | Glossary On
Versions: 1 2 3 4 5 6 7 8 9 10 11 12 13 14 15 16 17 18 19 20 21 22 23 24 25 26 27
000
ASUS45 KCYS 201610
RWRWY

WYOMING REGIONAL WEATHER ROUNDUP
NATIONAL WEATHER SERVICE CHEYENNE WY
900 AM MST SAT JAN 20 2018

NOTE:  "FAIR" INDICATES FEW OR NO CLOUDS BELOW 12,000 FEET
WITH NO SIGNIFICANT WEATHER AND/OR OBSTRUCTIONS TO VISIBILITY.

WYZ001-201700-
YELLOWSTONE NATIONAL PARK

CITY           SKY/WX    TMP DP  RH WIND       PRES   REMARKS
LK YELLOWSTONE   N/A      9   6  88 CALM      29.86R
W YELLOWSTONE  NOT AVBL

$$
WYZ002>013-054>058-071-098>099-201700-
NORTHERN WYOMING

CITY           SKY/WX    TMP DP  RH WIND       PRES   REMARKS
JACKSON        FLURRIES  22  18  85 N9        29.86S WCI  12
CODY           FAIR      27  24  89 S5        29.89R WCI  22
GREYBULL       CLOUDY    26  24  92 SE5       29.90R WCI  20
WORLAND        FAIR      26  24  92 S8        29.90R WCI  18
SHERIDAN       CLOUDY    30  24  78 NW5       29.93R WCI  25
BUFFALO        CLOUDY    30  20  66 N5        29.90R WCI  25
GILLETTE         N/A     28  24  85 W9        29.90R WCI  19
HULETT         CLOUDY    30  28  93 MISG      29.90R
NEWCASTLE      PTSUNNY   32  27  80 NW5       29.90R WCI  27

$$
WYZ014>020-022>026-101>103-201700-
CENTRAL WYOMING

CITY           SKY/WX    TMP DP  RH WIND       PRES   REMARKS
BIG PINEY      CLOUDY    23  14  68 NW6       29.83S WCI  16
PINEDALE       CLOUDY    21  14  73 NW9       29.82S WCI  11
DUBOIS         CLOUDY    23  12  63 N3        29.80S
LANDER         SNOW      27  25  92 NW9       29.84R VSB 1/2 WCI  18
RIVERTON       SNOW      27  25  92 NE10      29.85R VSB 1/2 WCI  17
CASPER         LGT SNOW  27  26  96 NE12      29.87S VSB 3/4 WCI  17
DOUGLAS        CLOUDY    30  28  92 VRB3      29.89R

$$
WYZ021-027>030-104>119-201700-
SOUTHERN WYOMING

CITY           SKY/WX    TMP DP  RH WIND       PRES   REMARKS
EVANSTON       FOG       20  19  96 N13       29.81S VSB 3/4 WCI   7
FORT BRIDGER   LGT SNOW  23  23 100 NW5       29.83F VSB 3/4 WCI  17
ROCK SPRINGS   LGT SNOW  24  21  88 CALM      29.81R
DIXON          LGT SNOW  30  27  90 W5        29.83R WCI  25
RAWLINS        CLOUDY    27  20  75 CALM      29.80S
SARATOGA       CLOUDY    28  28 100 NW3       29.80S
LARAMIE        FAIR      27  23  85 N8        29.79S WCI  19
CHEYENNE       FAIR      32  26  78 NE7       29.81R WCI  26
TORRINGTON     CLOUDY    33  31  92 N6        29.86R WCI  28

$$




USA.gov is the U.S. government's official web portal to all federal, state and local government web resources and services.